Location: Unspecified
(43.4354°N, 0.0000°E)
Time: 15:19:49
(UTC+00:00)

A-11 Canister half - Pass Details

Date: 20 June 2019
Orbit: 1514 x 1686 km, 47.2° (Epoch: 21 August)

Event Time Altitude Azimuth Distance (km) Brightness Sun altitude
Rises 10:07:44 0° 214° (SW) 4,908 11.6 59.2°
Reaches altitude 10° 10:11:04 10° 209° (SSW) 3,908 11.3 59.7°
Maximum altitude 10:20:26 47° 139° (SE) 2,062 11.6 61.2°
Drops below altitude 10° 10:29:29 10° 70° (ENE) 3,798 11.4 62.5°
Sets 10:32:40 0° 65° (ENE) 4,762 11.7 62.9°
